Regional Weather Roundup
Issued by NWS Kansas City/Pleasant Hill, MO

Home | Current Version | Previous Version | Text Only | Print | Product List | Glossary On
Versions: 1 2 3 4 5 6 7 8 9 10 11 12 13 14 15 16 17 18 19 20 21 22 23 24 25 26 27 28 29 30 31 32 33 34 35 36 37 38 39 40 41 42 43 44 45 46 47 48 49 50
000
ASUS43 KEAX 160511
RWREAX

WEATHER ROUNDUP FOR EASTERN KANSAS AND NORTHWEST MISSOURI
NATIONAL WEATHER SERVICE KANSAS CITY/PLEASANT HILL MO
1200 AM CDT TUE SEP 16 2014

KSZ040-057-103>105-MOZ028-029-037-043-160600-
...KANSAS CITY METROPOLITAN AREA...

CITY           SKY/WX    TMP DP  RH WIND       PRES   REMARKS
K.C. INTL      CLEAR     50  49  96 N6        30.25R
K.C. DOWNTOWN  CLEAR     55  50  83 NE6       30.25R
LEES SUMMIT    CLEAR     55  50  83 NE7       30.25S
OLATHE - IXD   CLEAR     51  49  92 N3        30.25S
OLATHE - OJC   CLEAR     54  50  86 NE6       30.24R
LAWRENCE       CLEAR     48  46  93 N5        30.25S

$$

MOZ001>008-011>017-020>025-030>033-038>040-044>046-053-054-160600-
...NORTHERN AND CENTRAL MISSOURI...

CITY           SKY/WX    TMP DP  RH WIND       PRES   REMARKS
ST. JOSEPH     MOCLDY    52  48  86 N6        30.26S
MOSBY          CLEAR     50  50 100 CALM      30.25S
WARRENSBURG    CLEAR     52  50  93 N5        30.23S
WHITEMAN AFB   CLOUDY    57  52  84 N9        30.22S
CLINTON        CLOUDY    61  55  82 CALM      30.22S
SEDALIA        CLOUDY    59  54  83 N8        30.22S
WARSAW         NOT AVBL
MARSHALL       CLOUDY    57  54  88 N5        30.24R
CHILLICOTHE      N/A     51  49  92 CALM      30.26S
MOBERLY        CLOUDY    57  50  77 N8        30.23R
KIRKSVILLE     CLOUDY    55  52  89 N5        30.24S

$$

MOZ041-047>049-056>058-063>065-088>090-097-160600-
...EASTERN AND SOUTHERN MISSOURI...

CITY           SKY/WX    TMP DP  RH WIND       PRES   REMARKS
ST. LOUIS INTL MOCLDY    60  57  89 N3        30.18R
SPIRIT OF STL  CLOUDY    62  58  86 N3        30.17S
COLUMBIA       CLOUDY    60  55  83 N7        30.21R
JEFFERSON CITY CLOUDY    61  57  87 N6        30.20R FOG
MEXICO         CLOUDY    61  61 100 N8        30.21R
ROLLA          CLOUDY    62  57  83 NE5       30.17S
LEBANON        MOCLDY    64  57  77 NE7       30.20S
OSAGE BEACH    CLOUDY    63  57  82 CALM      30.19S
SPRINGFIELD    CLOUDY    67  61  81 NE14      30.18R
BRANSON        CLOUDY    72  68  88 N5        30.17S
JOPLIN         CLOUDY    65  62  90 NE9       30.18F
WEST PLAINS    CLOUDY    70  66  87 NE8       30.16S

$$

IAZ060-094-KSZ022-034>040-054-083-096-NEZ052-066-093-160600-
...KANSAS...SOUTHEAST NEBRASKA AND IOWA...

CITY           SKY/WX    TMP DP  RH WIND       PRES   REMARKS
TOPEKA         CLEAR     53  51  93 N6        30.26R
MANHATTAN      CLEAR     53  49  86 NE6       30.26R
EMPORIA        CLOUDY    57  52  83 NE7       30.24R
CHANUTE        CLOUDY    65  57  75 N10       30.21R
WICHITA        MOCLDY    66  56  70 NE10      30.22R
OMAHA          CLEAR     50  47  89 CALM      30.27S
LINCOLN        CLEAR     45  42  89 CALM      30.28S
FALLS CITY     CLEAR     50  46  86 CALM      30.26S
LAMONI         CLEAR     49  45  86 NW3       30.25S
DES MOINES     CLEAR     51  46  83 CALM      30.25S

$$




USA.gov is the U.S. government's official web portal to all federal, state and local government web resources and services.